| time (UTC) | temp F | wind direction | speed knots | gust knots | rain 1hr in | rain 24hr in | rain mn in | humidity % | barometer mb |
| 20260506235318 | 89 | 0.0 | 0.0 | 0.00 | 0.00 | 0.00 | 38 | 1009.3 | |
| 20260506233743 | 89 | 0.0 | 0.0 | 0.00 | 0.00 | 0.00 | 38 | 1009.6 | |
| 20260506232208 | 89 | 0.0 | 0.0 | 0.00 | 0.00 | 0.00 | 38 | 1009.8 | |
| 20260506230633 | 89 | 0.0 | 0.0 | 0.00 | 0.00 | 0.00 | 38 | 1009.5 | |
| 20260506225059 | 89 | 0.0 | 0.0 | 0.00 | 0.00 | 0.00 | 38 | 1009.9 | |
| 20260506223507 | 89 | 0.0 | 0.0 | 0.00 | 0.00 | 0.00 | 38 | 1009.6 | |
| 20260506221932 | 89 | 0.0 | 0.0 | 0.00 | 0.00 | 0.00 | 38 | 1008.8 | |
| 20260506220357 | 90 | 0.0 | 0.0 | 0.00 | 0.00 | 0.00 | 37 | 1009.2 | |
| 20260506214822 | 89 | 0.0 | 0.0 | 0.00 | 0.00 | 0.00 | 38 | 1009.0 | |
| 20260506213247 | 90 | 0.0 | 0.0 | 0.00 | 0.00 | 0.00 | 38 | 1008.5 | |
| 20260506211712 | 90 | 0.0 | 0.0 | 0.00 | 0.00 | 0.00 | 37 | 1009.3 | |
| 20260506210137 | 90 | 0.0 | 0.0 | 0.00 | 0.00 | 0.00 | 38 | 1009.1 | |
| 20260506204546 | 90 | 0.0 | 0.0 | 0.00 | 0.00 | 0.00 | 38 | 1009.2 | |
| 20260506203011 | 90 | 0.0 | 0.0 | 0.00 | 0.00 | 0.00 | 37 | 1009.1 | |
| 20260506201436 | 90 | 0.0 | 0.0 | 0.00 | 0.00 | 0.00 | 37 | 1009.0 | |
| 20260506195901 | 90 | 0.0 | 0.0 | 0.00 | 0.00 | 0.00 | 37 | 1009.0 | |
| 20260506194326 | 91 | 0.0 | 0.0 | 0.00 | 0.00 | 0.00 | 37 | 1009.2 | |
| 20260506192751 | 91 | 0.0 | 0.0 | 0.00 | 0.00 | 0.00 | 37 | 1009.3 | |
| 20260506191216 | 91 | 0.0 | 0.0 | 0.00 | 0.00 | 0.00 | 37 | 1009.8 | |
| 20260506185641 | 91 | 0.0 | 0.0 | 0.00 | 0.00 | 0.00 | 37 | 1010.0 | |
| 20260506184106 | 91 | 0.0 | 0.0 | 0.00 | 0.00 | 0.00 | 37 | 1010.4 | |
| 20260506182530 | 91 | 0.0 | 0.0 | 0.00 | 0.00 | 0.00 | 37 | 1010.2 | |
| 20260506180955 | 91 | 0.0 | 0.0 | 0.00 | 0.00 | 0.00 | 37 | 1010.3 | |
| 20260506175420 | 91 | 0.0 | 0.0 | 0.00 | 0.00 | 0.00 | 37 | 1010.8 | |
| 20260506173845 | 91 | 0.0 | 0.0 | 0.00 | 0.00 | 0.00 | 37 | 1010.9 | |
| 20260506172310 | 91 | 0.0 | 0.0 | 0.00 | 0.00 | 0.00 | 37 | 1010.8 | |
| 20260506170735 | 91 | 0.0 | 0.0 | 0.00 | 0.00 | 0.00 | 37 | 1011.0 | |
| 20260506165144 | 91 | 0.0 | 0.0 | 0.00 | 0.00 | 0.00 | 37 | 1011.0 | |
| 20260506163609 | 91 | 0.0 | 0.0 | 0.00 | 0.00 | 0.00 | 36 | 1011.1 | |
| 20260506162034 | 90 | 0.0 | 0.0 | 0.00 | 0.00 | 0.00 | 36 | 1011.1 | |
| 20260506160459 | 90 | 0.0 | 0.0 | 0.00 | 0.00 | 0.00 | 36 | 1011.1 | |
| 20260506154924 | 91 | 0.0 | 0.0 | 0.00 | 0.00 | 0.00 | 36 | 1010.7 | |
| 20260506153333 | 89 | 0.0 | 0.0 | 0.00 | 0.00 | 0.00 | 39 | 1010.2 | |
| 20260506151742 | 89 | 0.0 | 0.0 | 0.00 | 0.00 | 0.00 | 39 | 1010.4 | |
| 20260506150207 | 88 | 0.0 | 0.0 | 0.00 | 0.00 | 0.00 | 40 | 1010.2 | |
| 20260506144617 | 89 | 0.0 | 0.0 | 0.00 | 0.00 | 0.00 | 39 | 1010.1 | |
| 20260506143042 | 88 | 0.0 | 0.0 | 0.00 | 0.00 | 0.00 | 40 | 1010.4 | |
| 20260506141506 | 89 | 0.0 | 0.0 | 0.00 | 0.00 | 0.00 | 39 | 1009.8 | |
| 20260506135930 | 86 | 0.0 | 0.0 | 0.00 | 0.00 | 0.00 | 42 | 1009.4 | |
| 20260506134355 | 88 | 0.0 | 0.0 | 0.00 | 0.00 | 0.00 | 40 | 1009.9 | |
| 20260506132821 | 86 | 0.0 | 0.0 | 0.00 | 0.00 | 0.00 | 42 | 1010.1 | |
| 20260506131245 | 85 | 0.0 | 0.0 | 0.00 | 0.00 | 0.00 | 42 | 1009.6 | |
| 20260506125710 | 85 | 0.0 | 0.0 | 0.00 | 0.00 | 0.00 | 43 | 1009.3 | |
| 20260506124135 | 85 | 0.0 | 0.0 | 0.00 | 0.00 | 0.00 | 42 | 1008.5 | |
| 20260506122600 | 83 | 0.0 | 0.0 | 0.00 | 0.00 | 0.00 | 44 | 1008.0 | |
| 20260506121025 | 83 | 0.0 | 0.0 | 0.00 | 0.00 | 0.00 | 44 | 1007.8 | |
| 20260506115450 | 83 | 0.0 | 0.0 | 0.00 | 0.00 | 0.00 | 44 | 1008.4 | |
| 20260506113859 | 91 | 0.0 | 0.0 | 0.00 | 0.00 | 0.00 | 35 | 1007.0 | |
| 20260506112324 | 91 | 0.0 | 0.0 | 0.00 | 0.00 | 0.00 | 35 | 1007.3 | |
| 20260506110749 | 87 | 0.0 | 0.0 | 0.00 | 0.00 | 0.00 | 39 | 1007.2 | |
| 20260506105214 | 86 | 0.0 | 0.0 | 0.00 | 0.00 | 0.00 | 40 | 1007.5 | |
| 20260506103639 | 86 | 0.0 | 0.0 | 0.00 | 0.00 | 0.00 | 41 | 1007.8 | |
| 20260506102104 | 84 | 0.0 | 0.0 | 0.00 | 0.00 | 0.00 | 43 | 1007.2 | |
| 20260506100529 | 84 | 0.0 | 0.0 | 0.00 | 0.00 | 0.00 | 42 | 1007.5 | |
| 20260506094938 | 92 | 0.0 | 0.0 | 0.00 | 0.00 | 0.00 | 35 | 1006.6 | |
| 20260506093403 | 92 | 0.0 | 0.0 | 0.00 | 0.00 | 0.00 | 34 | 1006.0 | |
| 20260506091828 | 92 | 0.0 | 0.0 | 0.00 | 0.00 | 0.00 | 34 | 1006.1 | |
| 20260506090253 | 91 | 0.0 | 0.0 | 0.00 | 0.00 | 0.00 | 35 | 1005.7 | |
| 20260506084718 | 91 | 0.0 | 0.0 | 0.00 | 0.00 | 0.00 | 35 | 1005.4 | |
| 20260506083143 | 91 | 0.0 | 0.0 | 0.00 | 0.00 | 0.00 | 35 | 1005.6 | |
| 20260506081608 | 92 | 0.0 | 0.0 | 0.00 | 0.00 | 0.00 | 35 | 1005.5 | |
| 20260506072925 | 90 | 0.0 | 0.0 | 0.00 | 0.00 | 0.00 | 38 | 1005.8 | |
| 20260506071348 | 91 | 0.0 | 0.0 | 0.00 | 0.00 | 0.00 | 35 | 1005.7 | |
| 20260506061128 | 92 | 0.0 | 0.0 | 0.00 | 0.00 | 0.00 | 33 | 1006.7 | |
| 20260506050835 | 91 | 0.0 | 0.0 | 0.00 | 0.00 | 0.00 | 35 | 1007.9 | |
| 20260506043725 | 88 | 0.0 | 0.0 | 0.00 | 0.00 | 0.00 | 37 | 1008.5 | |
| 20260506042150 | 87 | 0.0 | 0.0 | 0.00 | 0.00 | 0.00 | 38 | 1009.2 | |
| 20260506040615 | 89 | 0.0 | 0.0 | 0.00 | 0.00 | 0.00 | 37 | 1008.9 | |
| 20260506035041 | 90 | 0.0 | 0.0 | 0.00 | 0.00 | 0.00 | 37 | 1009.0 | |
| 20260506033505 | 89 | 0.0 | 0.0 | 0.00 | 0.00 | 0.00 | 38 | 1010.1 | |
| 20260506031930 | 89 | 0.0 | 0.0 | 0.00 | 0.00 | 0.00 | 38 | 1010.1 | |
| 20260506030355 | 89 | 0.0 | 0.0 | 0.00 | 0.00 | 0.00 | 38 | 1009.6 | |
| 20260506024820 | 89 | 0.0 | 0.0 | 0.00 | 0.00 | 0.00 | 38 | 1009.8 | |
| 20260506023245 | 89 | 0.0 | 0.0 | 0.00 | 0.00 | 0.00 | 39 | 1010.3 | |
| 20260506021710 | 88 | 0.0 | 0.0 | 0.00 | 0.00 | 0.00 | 39 | 1011.0 | |
| 20260506020135 | 88 | 0.0 | 0.0 | 0.00 | 0.00 | 0.00 | 39 | 1011.2 | |
| 20260506014600 | 88 | 0.0 | 0.0 | 0.00 | 0.00 | 0.00 | 39 | 1011.4 | |
| 20260506013025 | 88 | 0.0 | 0.0 | 0.00 | 0.00 | 0.00 | 39 | 1011.4 | |
| 20260506011450 | 88 | 0.0 | 0.0 | 0.00 | 0.00 | 0.00 | 39 | 1010.6 | |
| 20260506005915 | 87 | 0.0 | 0.0 | 0.00 | 0.00 | 0.00 | 40 | 1010.8 | |
| 20260506004340 | 87 | 0.0 | 0.0 | 0.00 | 0.00 | 0.00 | 40 | 1009.9 | |
| 20260506002805 | 86 | 0.0 | 0.0 | 0.00 | 0.00 | 0.00 | 40 | 1009.9 | |
| 20260506001230 | 86 | 0.0 | 0.0 | 0.00 | 0.00 | 0.00 | 41 | 1010.0 | |
| 20260505235655 | 86 | 0.0 | 0.0 | 0.00 | 0.00 | 0.00 | 40 | 1009.7 |